Retour au catalogue

STARLINK-36490

ActifCommunicationsVLEO
NORAD 67305·PAYLOAD·🇺🇸 United States

Lancé Jan 4, 2026 depuis Cape Canaveral Space Force Station

Loading…

Prochains Passages (prochaines 24 heures)

TLE

FraisSource: CelesTrak SupGP

Époque: Sep 15, 2026, 04:13 UTC

1 67305C 26002A   26258.17618056  .00046437  00000+0  16815-2 0  2582
2 67305  43.0025 334.8582 0001331 261.4341  31.3980 15.27563708    18

Suivez STARLINK-36490 en temps réel avec AllMySat

Download on the App Store